Disclaimer

Please do not use the information listed here in-flight or in-navigation, as they are not provided to us by the airports but are provided by volunteers, so they might be outdated.

Search


Regions


Airport information page

No radio frequency information is available.

Airport informations:
Latitude: 52° 08' 18.66" N
Longitude: 015° 47' 54.80" E
Elevation: 194 feet - 59 meters
Operating hours: Remarks
Operating agency: Civil government, landing fees and diplomatic clearance may be required
Timezone: UTC+1(+2DT) - Last Sunday in March to last Sunday in October
Fuel: N/A

Runway information:
06/24 - 8202 x 197 feet< - >2500 x 60 meters

Recent METARs:
EPZG 212000Z 18006KT 2500 BR BKN007 M05/M06 Q1020
EPZG 212030Z 20004KT 2500 BR BKN006 M05/M06 Q1020
EPZG 212100Z 18005KT 2400 BR OVC006 M05/M06 Q1020
EPZG 212130Z 20005KT 2100 BR OVC006 M05/M06 Q1020

Airport on the map: